Temp
8 8 8 8 8 9 9 9 9 8 9 9 9 9 9 10 10 11 11 10 10 9 9 9 9 9 8 10 11 11 11 10 10 10 11 12 11 12 10 12 12 11 13 14 15 15 16
8 8 8 8 8 8 8 8 8 8 8 8 8 9 9 9 10 10 11 10 9 9 9 8 8 8 8 9 11 10 10 10 10 10 11 11 11 12 11 10 9 12 13 14 14 14 14
8 8 8 8 8 8 8 8 8 8 8 8 8 8 8 8 8 10 10 9 9 8 8 8 8 8 9 10 10 10 10 10 10 10 11 11 11 11 11 10 10 10 10 13 14 13 12
8 8 8 8 8 8 8 8 7 8 8 7 8 8 7 7 8 11 10 9 8 8 8 8 8 9 10 10 10 10 10 10 9 9 10 10 10 10 10 9 9 10 12 11 13 11 10
8 8 8 8 8 7 7 7 7 7 7 7 7 7 7 7 8 10 9 8 8 8 8 8 8 9 10 9 10 10 9 10 10 9 9 10 9 10 9 8 9 9 12 12 11 13 13
8 8 8 7 7 7 7 7 7 7 7 7 7 7 7 7 9 9 8 8 7 8 8 8 8 9 10 11 10 9 9 8 10 10 10 10 9 10 9 9 13 13 13 12 13 15 15
7 7 7 7 7 7 7 7 7 7 7 6 7 6 6 7 8 8 7 7 8 8 9 11 11 11 11 9 9 9 9 9 10 10 10 11 10 10 11 11 13 11 14 12 16 16 15
7 7 7 7 7 7 7 7 7 7 7 7 6 6 6 6 6 7 7 8 9 10 10 10 10 10 10 10 11 10 9 10 10 11 11 11 10 13 10 10 12 11 15 14 15 15 15
7 7 7 7 7 7 7 7 7 6 7 7 7 6 6 6 6 7 6 7 9 9 11 11 10 10 11 10 11 11 10 11 11 11 11 10 13 11 11 10 13 14 16 15 13 14 15
7 7 7 7 6 7 6 7 6 6 6 6 6 6 6 6 7 7 7 9 8 8 10 11 10 11 10 11 11 11 10 11 10 11 13 11 14 12 11 11 13 14 16 15 14 15 16
7 7 7 6 6 6 6 6 5 6 5 6 6 6 6 5 5 7 7 8 8 9 11 11 10 10 11 11 12 11 10 10 12 13 12 13 13 13 13 14 13 15 15 14 15 15 17
7 7 7 7 6 6 5 6 5 6 6 5 5 5 5 6 5 6 6 7 8 9 11 10 10 10 10 11 12 10 10 9 10 11 11 11 12 12 11 12 11 16 16 16 15 16 16
6 6 6 6 6 6 6 5 5 5 5 5 5 5 4 5 6 7 6 7 9 10 11 10 10 11 12 12 12 12 12 11 11 11 11 10 10 12 11 12 14 16 16 15 16 16 15
6 6 6 6 6 6 5 5 5 5 5 5 5 5 4 5 5 6 6 6 10 11 12 12 11 12 13 13 13 13 12 10 8 8 11 13 12 11 13 12 13 15 15 16 16 17 15
6 5 5 6 6 6 5 5 5 5 5 5 5 5 4 4 5 5 6 9 11 11 12 11 12 13 12 12 13 13 13 13 13 13 13 13 12 11 13 14 14 15 15 15 16 16 18
5 5 5 6 6 5 5 5 5 5 5 5 5 4 3 4 4 6 6 9 10 11 11 12 13 13 13 13 13 13 14 13 13 13 13 14 12 12 13 14 14 15 15 15 16 17 16
5 4 5 6 5 5 5 5 5 5 5 5 4 4 4 6 6 6 8 9 9 11 11 12 12 12 13 13 13 13 13 13 14 14 14 14 16 12 14 14 14 15 16 16 16 16 18
5 5 5 5 5 5 5 5 5 5 5 5 4 5 4 6 6 6 9 9 10 9 11 11 13 13 13 13 13 13 14 14 13 13 14 13 15 13 14 14 13 14 15 15 18 16 14
4 5 5 5 5 5 5 5 5 5 5 4 5 4 5 7 8 8 8 8 8 9 10 12 13 13 12 13 13 13 13 13 13 13 14 14 14 14 15 15 14 15 15 14 15 16 13
5 5 5 5 5 5 5 5 5 5 5 5 5 6 5 5 7 9 8 8 8 9 9 13 13 13 13 13 13 13 13 13 13 13 11 14 13 13 15 14 13 14 15 15 15 16 18
5 5 5 5 5 5 5 5 5 5 5 4 5 6 5 8 7 7 8 7 8 9 11 13 13 14 14 13 13 13 13 13 14 12 13 15 12 11 12 12 13 13 14 15 14 15 16
4 5 5 5 5 5 5 5 5 5 5 5 5 6 7 7 7 7 7 7 8 10 12 13 13 13 14 14 14 13 14 14 14 14 13 13 12 12 12 13 13 14 14 14 14 14 15
4 5 5 5 5 5 5 5 5 5 5 4 5 5 6 6 6 7 8 8 10 11 12 12 13 14 14 13 13 14 14 14 14 14 13 13 13 13 13 12 13 15 13 14 14 13 15
4 5 5 5 5 5 5 5 5 5 5 4 5 5 7 8 7 8 7 9 10 11 12 11 12 14 11 12 14 14 14 14 14 13 14 13 13 12 13 13 15 13 12 13 13 14 14
4 4 5 5 5 5 5 5 5 5 5 5 5 5 7 7 7 7 8 9 10 11 10 10 10 10 11 12 14 14 13 14 13 11 13 14 13 12 13 14 14 13 12 13 14 15 13
4 4 4 5 5 5 5 4 5 5 5 6 5 6 6 9 7 4 8 9 10 9 11 10 10 10 11 13 13 13 13 12 12 12 12 12 13 14 12 13 14 14 13 13 13 15 12
4 4 4 4 4 5 5 5 6 6 5 6 5 5 6 7 4 4 8 9 8 8 9 10 11 11 12 12 13 13 12 11 13 13 12 13 13 13 13 13 14 14 13 12 14 15 12
4 4 4 4 4 5 6 7 7 6 6 7 5 5 6 6 4 3 4 6 8 8 11 10 11 11 10 10 12 12 13 12 12 11 12 13 13 13 14 12 12 12 12 13 13 11 12
4 4 4 4 4 5 8 7 7 6 7 7 6 5 5 6 5 3 3 3 3 4 7 8 10 10 11 11 10 11 12 10 12 13 9 12 13 14 14 14 12 11 12 11 11 12 11
Height
858 855 852 847 844 840 837 831 827 824 819 814 810 805 799 794 789 786 789 790 791 793 793 795 794 793 795 793 789 789 789 790 790 791 792 791 788 785 787 777 777 774 766 762 761 762 761
858 855 851 847 843 839 835 831 827 823 818 813 809 803 797 793 788 786 785 786 787 789 789 791 791 791 793 791 783 786 787 788 788 790 790 789 785 783 782 782 782 767 762 758 757 759 761
857 853 850 846 843 838 834 829 825 821 815 811 805 801 795 790 784 782 782 782 783 785 785 787 788 788 789 782 780 784 785 786 786 788 787 785 785 786 780 779 775 770 768 756 752 755 760
856 852 848 844 840 835 832 827 824 819 815 810 805 798 792 785 779 776 776 778 780 781 782 783 787 787 784 780 777 780 782 782 783 785 784 784 784 782 777 778 775 764 759 754 746 760 761
853 850 847 843 839 835 831 827 822 818 813 808 803 797 789 784 776 770 771 775 777 779 781 783 785 784 779 777 775 777 779 779 781 782 782 782 782 775 775 777 767 763 742 745 748 741 746
852 848 845 841 838 834 830 826 821 816 811 806 800 794 787 779 768 766 769 772 774 778 781 782 783 786 777 772 773 775 776 778 779 779 777 777 775 770 768 764 736 739 740 744 737 727 734
850 846 843 838 835 831 827 822 818 814 809 804 798 793 786 779 768 766 770 773 778 779 777 765 765 765 768 770 772 773 774 777 778 775 770 766 766 761 751 752 738 746 731 738 721 722 728
848 843 839 835 831 826 823 818 814 810 806 801 797 791 785 780 775 770 769 767 765 766 763 763 765 766 768 768 767 769 773 773 769 762 762 763 756 742 754 753 743 747 726 727 725 725 724
845 841 836 831 827 823 819 815 810 805 801 797 794 789 784 777 773 771 768 766 765 765 760 758 761 763 763 766 761 761 769 766 763 760 757 759 741 749 749 749 736 731 719 724 729 730 727
841 836 831 827 823 818 814 810 805 800 796 792 789 786 782 777 771 768 767 762 765 766 761 752 757 757 760 761 759 761 763 764 763 755 749 753 739 742 743 742 736 729 722 721 728 727 721
835 831 827 822 818 814 809 804 800 796 790 787 784 782 779 778 773 769 766 763 765 766 744 750 755 756 756 757 755 757 761 763 753 749 753 740 737 736 734 731 735 726 727 728 723 719 710
830 826 822 818 814 809 804 800 795 790 785 781 778 776 775 772 771 766 763 764 768 764 741 749 752 752 754 754 752 757 757 761 755 751 752 747 743 739 742 739 739 721 723 723 725 719 723
825 821 817 814 809 804 799 795 789 784 779 775 772 770 769 770 764 764 764 766 759 742 741 748 746 746 744 746 747 749 748 750 752 747 746 753 746 738 737 735 727 722 720 726 720 716 730
818 815 812 809 804 799 794 789 784 778 773 768 764 761 757 759 760 763 764 766 743 731 732 736 739 742 740 742 742 743 745 754 761 762 748 737 737 745 737 737 733 728 726 716 719 717 727
812 810 808 804 799 795 790 785 779 773 767 761 753 744 739 740 749 758 763 745 730 730 732 736 739 736 740 743 740 741 740 740 739 742 738 737 744 747 740 736 736 731 730 728 720 721 718
806 806 804 800 795 791 786 780 774 768 763 756 746 736 732 730 741 753 757 742 737 737 735 736 731 734 734 737 736 737 735 740 740 741 739 735 742 747 739 736 736 732 733 730 725 724 730
804 802 800 797 792 788 783 777 771 765 759 752 742 738 736 738 746 753 745 746 743 739 739 737 735 735 736 737 737 736 739 740 739 739 739 735 728 749 740 739 738 729 727 728 726 729 716
801 799 798 794 790 786 780 774 768 763 757 750 746 740 742 744 751 755 741 747 745 746 741 740 736 736 735 738 737 736 738 741 742 740 737 742 736 746 743 742 744 740 733 728 716 734 738
801 800 796 792 788 783 778 773 767 762 757 752 748 747 744 746 746 746 752 753 755 750 745 737 733 735 741 738 738 740 741 746 743 742 740 738 744 744 739 740 742 738 739 738 732 729 747
799 798 794 790 786 781 776 771 766 763 758 755 752 748 754 755 752 746 752 756 756 752 750 738 737 737 737 737 739 744 743 746 746 745 748 743 750 746 739 749 751 744 741 737 734 733 731
798 795 791 788 784 780 775 770 766 763 760 758 757 755 758 751 754 755 756 761 757 753 743 739 737 735 734 738 741 744 745 745 745 747 747 743 759 766 759 758 753 750 746 743 745 745 739
797 792 790 786 782 778 774 769 766 763 761 760 761 758 756 758 758 758 761 760 757 753 741 739 736 738 735 735 737 742 743 743 744 743 745 749 760 762 762 759 756 752 751 750 749 750 748
796 790 787 783 779 775 771 768 766 764 764 764 763 763 761 764 762 759 759 756 749 749 743 744 739 736 737 743 743 742 744 745 746 745 747 748 751 753 753 759 754 748 757 754 755 757 753
794 788 785 782 777 773 769 766 764 764 764 765 764 765 761 757 760 758 759 754 753 747 744 747 744 737 751 750 748 748 748 750 749 752 750 751 754 759 756 750 746 758 760 759 757 755 756
792 787 784 779 775 770 766 764 761 760 759 760 761 763 761 761 762 761 757 755 754 751 754 754 754 755 754 750 748 750 753 752 756 761 756 751 755 764 756 755 756 756 761 760 757 752 757
790 785 781 777 772 767 762 759 757 756 755 757 760 762 762 757 763 771 760 757 753 759 754 758 758 758 756 751 751 754 754 759 761 761 762 761 756 756 764 761 753 753 760 761 762 750 761
788 785 781 776 769 763 756 752 751 752 754 758 760 761 762 762 773 773 760 757 762 764 760 759 759 759 756 754 754 754 758 770 758 759 763 762 763 762 761 761 755 755 760 763 759 756 760
784 782 778 772 768 760 752 746 746 750 754 758 761 762 763 766 773 773 771 766 762 763 752 761 761 760 765 765 757 759 756 763 762 766 765 759 759 760 760 764 764 760 765 760 758 765 764
782 778 777 772 764 759 751 747 748 752 757 759 762 764 764 765 771 774 773 772 772 771 767 765 762 761 760 762 767 766 762 771 764 755 775 763 758 755 757 753 759 762 760 763 764 762 765
Wind_Speed
21 22 22 23 23 23 23 24 23 25 25 27 26 28 27 21 21 20 15 12 10 8 8 8 5 3 3 3 8 6 9 7 4 3 5 6 9 9 12 9 11 19 21 18 21 21 20
22 21 22 23 23 23 23 25 26 26 26 26 27 27 27 25 24 15 17 13 8 8 6 6 2 3 3 7 3 5 6 4 7 8 8 7 6 7 9 10 12 9 13 21 20 18 19
21 22 22 24 24 24 24 24 25 27 26 25 25 27 27 27 29 18 21 12 8 6 5 7 6 6 5 10 3 5 8 8 10 11 11 10 9 8 3 9 11 17 16 15 19 19 11
22 23 23 23 24 24 25 26 25 26 26 27 26 28 27 31 34 21 20 10 8 6 5 6 5 4 6 5 5 11 10 9 10 10 11 10 10 12 14 3 7 11 11 10 5 12 15
21 25 24 24 25 23 24 25 25 26 26 26 28 31 30 35 34 16 16 9 6 4 5 6 5 5 5 2 3 6 6 9 9 11 11 10 6 8 4 3 6 6 4 11 6 15 14
23 25 23 24 24 24 23 24 25 24 25 26 28 31 32 33 32 15 11 6 2 4 6 5 4 3 4 3 4 3 2 6 7 6 8 9 6 5 4 5 5 5 6 6 11 11 18
23 24 25 25 24 24 24 24 24 25 25 25 28 30 31 33 25 13 10 8 5 3 10 9 8 3 4 4 4 5 4 5 6 5 5 7 6 8 9 9 13 11 9 10 8 9 12
25 25 27 25 26 26 26 25 26 26 25 24 25 28 30 28 28 4 5 3 4 2 5 16 6 7 4 4 4 6 6 6 5 5 4 5 9 7 3 10 9 13 13 6 3 10 3
27 27 26 27 25 27 27 29 28 27 26 23 23 27 28 30 24 7 6 7 4 1 4 4 6 6 4 9 4 5 8 3 5 6 7 6 9 5 6 6 10 16 12 8 5 8 3
26 27 27 27 27 27 26 28 28 28 27 25 24 24 24 27 11 4 5 10 8 4 2 6 6 6 5 4 4 5 10 3 5 4 4 7 3 6 8 3 3 8 8 8 7 8 3
24 26 27 27 30 29 26 28 27 30 27 25 24 23 21 19 17 6 6 3 9 2 3 8 5 6 6 5 3 7 4 5 6 3 3 1 1 6 7 2 3 3 12 10 8 3 1
23 25 26 28 29 30 28 28 28 30 28 27 24 24 21 17 11 13 4 10 4 3 5 6 5 7 6 6 3 4 5 3 3 3 2 5 5 3 3 0 6 7 9 6 3 3 3
23 23 26 28 29 29 29 27 29 31 29 27 26 22 22 21 5 2 10 4 3 4 2 6 5 7 7 6 5 6 4 3 2 3 3 2 3 4 2 3 4 8 4 2 1 3 4
21 23 27 27 28 29 29 28 32 31 30 28 26 28 29 22 13 13 13 3 6 3 3 4 5 9 5 6 3 4 4 0 4 2 0 1 2 7 6 3 3 3 4 4 2 3 4
21 20 27 27 27 28 29 30 31 32 31 30 36 28 23 26 20 22 5 4 2 1 4 7 8 7 4 4 2 4 2 1 2 2 2 2 4 5 4 3 2 2 1 5 3 5 4
13 24 25 26 26 27 29 31 31 31 30 31 22 18 10 12 27 23 2 1 2 1 4 9 2 2 6 6 4 2 1 2 2 2 3 2 4 7 3 3 2 1 2 1 2 2 4
17 20 24 24 25 28 30 31 30 29 30 28 11 4 11 26 27 4 2 3 2 2 4 2 2 4 3 4 1 2 3 3 4 3 1 1 3 5 4 6 8 3 1 2 2 3 2
23 19 23 24 25 27 29 30 29 28 29 16 4 2 13 18 4 1 3 4 4 4 3 3 1 3 4 3 3 2 3 3 5 4 4 4 4 3 3 2 4 4 6 5 3 3 3
19 21 23 24 25 28 28 28 27 27 24 12 6 3 12 7 3 2 3 4 3 1 3 2 1 0 1 3 4 2 3 3 5 3 3 2 3 2 1 1 2 3 4 4 2 2 4
17 22 22 23 27 27 26 25 25 23 19 14 3 2 3 3 3 5 3 2 2 5 5 2 2 2 3 4 5 4 4 4 3 4 6 2 4 3 2 4 3 2 5 7 5 3 6
18 20 22 24 26 26 24 24 24 22 17 7 3 3 2 2 3 5 3 1 3 3 5 2 2 2 4 3 4 4 3 3 3 4 2 1 4 4 6 5 2 3 5 8 7 5 5
18 20 22 24 23 24 24 24 22 18 16 5 2 2 2 2 5 5 1 0 2 4 2 3 1 5 2 4 2 5 5 1 1 3 3 2 4 4 3 4 5 3 5 5 5 3 5
17 19 22 23 24 25 26 23 18 13 10 2 1 3 2 2 2 2 3 3 2 3 3 4 1 5 9 4 4 7 5 6 4 1 2 3 3 1 2 4 2 4 4 2 3 1 1
17 20 21 22 24 25 24 21 15 12 6 5 4 2 2 2 0 1 2 7 2 4 2 5 4 2 2 10 13 12 13 10 10 9 4 3 3 3 2 5 3 2 2 3 3 4 4
17 19 19 22 24 25 25 18 18 13 8 11 3 3 1 2 1 1 1 3 2 5 5 3 5 2 6 2 5 4 2 2 6 8 7 2 3 3 1 0 2 2 2 2 2 2 1
16 19 21 22 24 26 23 22 17 13 8 7 8 7 2 1 2 2 2 1 3 2 1 3 4 2 3 2 2 1 2 2 3 3 5 5 4 2 1 1 3 3 2 2 2 3 2
17 18 20 23 25 26 25 24 13 4 5 10 6 3 1 2 1 2 0 3 2 2 2 3 2 2 3 2 2 1 2 1 3 5 4 3 2 3 3 2 3 3 3 2 2 3 4
16 19 21 24 26 26 25 14 3 9 13 7 4 1 1 2 2 1 2 0 2 0 1 4 2 1 2 1 1 1 1 2 2 2 3 4 5 3 4 3 4 5 5 4 3 2 3
15 19 21 24 27 27 18 6 10 16 15 4 4 8 7 3 3 2 3 5 3 1 2 1 2 1 2 2 1 2 2 2 2 2 2 4 3 1 5 1 2 4 1 1 1 1 3
Wind_Direction
359 357 354 353 351 350 350 349 350 349 346 345 337 335 338 337 350 230 238 251 267 271 283 288 278 294 164 202 254 256 253 265 234 220 250 255 252 253 259 268 273 243 257 260 251 254 251
358 356 353 350 352 352 350 348 350 347 343 343 341 334 337 333 325 299 246 242 252 253 272 278 250 226 173 247 250 255 245 248 235 233 248 242 256 265 284 274 262 269 273 255 247 251 244
356 353 354 351 350 351 350 349 347 344 343 339 342 338 332 331 326 318 240 232 227 252 256 236 214 199 208 246 185 247 242 257 243 235 253 257 256 248 282 279 261 264 245 256 234 239 241
354 352 349 347 346 346 342 342 344 340 341 343 341 341 338 336 325 293 213 216 228 231 237 224 200 178 249 245 231 258 254 254 238 230 238 260 249 257 254 276 287 259 234 246 155 202 247
349 349 346 345 341 341 340 340 340 336 338 342 342 340 336 332 326 250 204 201 221 232 219 178 180 196 252 233 205 239 230 253 243 237 238 250 232 240 195 218 239 216 236 228 290 246 209
343 340 339 337 335 334 335 336 334 338 336 341 341 341 340 339 335 196 182 174 234 173 185 169 150 211 222 203 160 194 204 217 223 234 239 225 225 236 229 219 229 189 208 254 236 185 200
335 335 333 332 328 330 329 329 328 331 334 337 341 339 340 345 349 183 160 127 128 157 215 196 198 192 132 125 170 200 175 187 206 223 225 202 241 242 251 252 267 291 214 228 192 161 173
335 330 333 327 327 328 330 328 329 326 328 332 334 334 335 339 344 269 171 210 246 57 234 225 221 237 242 149 227 204 185 217 200 243 230 235 247 268 273 266 221 246 212 180 131 135 174
332 329 329 328 328 327 327 326 324 322 321 322 325 328 333 334 327 278 222 229 247 216 253 186 195 201 213 168 228 199 190 210 238 239 220 245 293 191 224 279 202 212 196 133 111 131 108
326 326 325 325 327 328 325 323 324 326 322 318 320 323 327 333 324 292 238 260 204 218 271 173 190 184 135 190 231 167 204 232 205 252 237 248 260 223 233 233 269 181 168 156 164 190 150
323 327 326 331 326 321 322 323 325 326 322 317 317 318 321 331 297 260 298 209 185 255 239 135 137 151 137 209 110 203 178 182 251 203 247 308 252 237 250 287 272 126 163 215 237 255 147
315 324 325 327 328 326 321 321 324 323 322 320 317 313 317 320 299 271 213 163 167 199 232 157 137 174 158 200 193 139 207 223 277 266 243 295 330 297 232 120 236 158 148 173 204 230 97
310 319 326 327 329 327 324 326 323 320 322 320 314 313 305 296 251 267 169 169 194 229 142 159 172 165 193 166 193 198 202 191 283 246 166 317 320 286 288 65 104 169 165 168 140 51 50
306 322 328 328 327 327 330 327 325 325 325 320 314 307 286 264 248 221 171 205 213 123 170 120 149 136 190 161 190 194 176 182 221 169 348 10 78 350 348 29 116 35 342 323 91 99 88
301 322 329 327 327 331 333 330 328 328 326 323 317 298 274 247 224 190 159 214 14 139 134 133 141 148 158 175 205 192 183 84 23 207 346 147 46 323 26 359 335 131 347 340 86 66 99
317 331 328 326 332 335 334 333 331 332 331 329 317 308 276 242 175 151 167 214 16 37 105 156 138 195 161 166 179 205 55 41 43 25 264 105 101 9 327 278 167 4 357 204 250 127 100
339 333 328 330 336 337 334 334 335 336 335 334 304 330 22 134 135 107 167 63 319 40 51 255 127 137 164 147 119 83 66 36 5 27 60 345 11 341 309 26 360 2 44 89 105 2 96
342 336 335 334 338 335 333 335 337 338 340 345 297 340 318 135 86 207 115 107 0 9 335 304 222 98 166 147 103 98 107 48 351 342 33 28 85 63 14 1 314 303 336 325 338 99 40
346 341 337 336 337 335 337 339 339 345 353 346 340 357 26 30 118 115 78 67 38 309 273 274 193 244 159 128 121 104 95 27 21 39 23 9 39 112 33 175 201 5 6 359 13 64 40
346 341 337 338 337 339 341 341 342 349 350 357 352 37 51 19 335 117 87 64 1 286 264 265 67 117 136 81 51 119 102 37 24 73 39 104 54 5 54 34 334 -0 9 9 13 46 79
345 342 337 337 340 342 343 342 344 348 353 7 4 28 332 76 56 90 79 24 183 287 225 71 179 165 134 103 91 108 101 109 57 6 109 109 92 66 56 29 331 21 31 34 47 36 58
346 339 338 337 342 342 341 342 342 348 355 38 3 357 56 60 126 106 37 44 189 281 286 194 147 134 102 106 20 156 129 105 23 39 50 51 125 157 117 16 15 62 57 82 46 45 74
345 337 337 339 342 342 341 341 342 347 4 16 262 319 311 1 69 152 173 196 88 280 80 27 191 127 80 50 77 92 65 76 83 35 62 36 121 0 63 349 274 123 21 72 77 318 341
340 335 341 341 341 340 338 339 346 335 325 291 276 259 265 64 275 234 221 226 21 359 71 14 7 86 61 118 103 88 81 81 67 47 26 94 69 23 11 315 61 73 11 15 270 263 210
336 336 342 338 338 339 339 340 331 325 308 241 217 197 248 89 287 126 17 180 180 43 45 20 17 20 138 351 109 114 84 107 37 35 24 37 100 82 42 339 335 147 192 224 232 167 237
334 337 338 339 338 337 337 335 330 330 342 172 180 205 266 247 66 329 274 238 119 106 83 50 32 8 285 55 85 118 125 103 122 100 29 48 58 33 79 239 217 78 143 196 243 206 152
331 339 338 339 338 339 336 334 321 261 149 162 144 186 111 109 65 293 82 89 79 122 85 60 44 340 2 25 78 89 111 341 153 159 164 158 156 211 196 266 267 180 124 114 222 84 147
331 338 340 341 341 343 348 342 123 146 136 157 98 182 170 91 78 273 344 150 150 317 164 141 164 96 88 36 288 124 166 135 181 128 177 192 179 195 200 238 268 146 136 217 50 102 167
328 339 344 344 349 358 15 52 130 153 154 95 97 72 84 71 90 150 99 74 62 309 308 74 18 113 122 129 184 157 154 173 185 202 189 214 228 215 227 235 63 189 287 123 176 175 198